Погода в Ыллымахе

Россия / Республика Саха (Якутия)     58°34′47″N   126°41′25″E
темп.,
°C
ветер,
м/с
пор.,
м/с
влажн.,
%
обл.,
%
осадки,
мм/ч
давл.,
гПа
погр.,
м
1 марта, пн
пн100:00−29з2996100 0.1 1033620
03:00−30зюз2296100 0.1 103342
06:00−30зюз2295100 0.1 103445
09:00−30зюз2393100 0.1 1034176
12:00−27з2582100 0.0 10331001
15:00−27зсз3684100 0.1 10311062
18:00−29зюз1292100 0.0 103119
21:00−32юз2295100 0.1 103119
2 марта, вт
вт200:00−33юз2293100 0.0 103125
03:00−34юз239199 0.0 103122
06:00−35ююз339069 0.0 103023
09:00−33ююз239039 0.0 103089
12:00−26ююз23820 0.0 1027424
15:00−25ююз247824 0.0 1024853
18:00−29ююз338467 0.0 102427
21:00−32ююз338133 0.0 102526
3 марта, ср
ср300:00−33ююз338135 0.0 102430
03:00−33ююз338028 0.0 102330
06:00−33ююз238653 0.0 102223
09:00−30ююз119162 0.0 102139
12:00−25ссв118995 0.0 1018397
15:00−25с239697 0.1 1017402
18:00−28ссз1299100 0.1 101820
21:00−30зсз11100100 0.1 102119
4 марта, чт
чт400:00−31зюз1198100 0.1 102219
03:00−33з1198100 0.1 102419
06:00−34зюз1297100 0.0 102619
09:00−33зюз2393100 0.1 102786
12:00−30з3883100 0.0 1027852
15:00−29з51086100 0.1 1026963
18:00−30зсз31193100 0.1 1028809
21:00−32з21197100 0.2 1030482
5 марта, пт
пт500:00−32з31097100 0.1 1030903
03:00−32зсз31097100 0.3 1031968
06:00−33зсз3997100 0.1 1032507
09:00−31з3694100 0.2 1033527
12:00−29з3886100 0.1 1033860
15:00−27зсз3988100 0.1 1033859
18:00−28з3694100 0.1 1033345
21:00−30зюз2296100 0.1 103536